Погода в Новокижингинске

Россия / Республика Бурятия     51°37′18″N   109°36′01″E
темп.,
°C
ветер,
м/с
пор.,
м/с
влажн.,
%
обл.,
%
осадки,
мм/ч
давл.,
гПа
погр.,
м
9 декабря, чт
чт923:00−12юз229439 0.0 102628
02:00−13юз229686 0.0 102819
05:00−13юз219871 0.0 103018
08:00−12зюз229898 0.1 103144
11:00−9зюз258197 0.0 1032350
14:00−8з466697 0.0 1030658
17:00−14юз11959 0.0 103413
20:00−13юз1194100 0.0 103320
10 декабря, пт
пт1023:00−11зсз1295100 0.6 1033186
02:00−12зсз2694100 1.4 1033398
05:00−13зсз2795100 0.3 1034388
08:00−14зсз398799 0.3 1037363
11:00−13зсз27745 0.0 1037509
14:00−12зсз47617 0.0 1035952
17:00−18зюз219315 0.0 103814
20:00−16юз3881100 0.0 1037188
11 декабря, сб
сб1123:00−15юз3107792 0.0 1035334
02:00−18ююз259237 0.0 103669
05:00−14з5158587 0.2 10351529
08:00−15зсз61488100 0.3 10361401
11:00−15зсз61283100 0.1 10371218
14:00−15зсз61283100 0.3 10371373
17:00−17зсз61289100 0.1 10391070
20:00−17зсз61290100 0.2 1039849
12 декабря, вс
вс1223:00−18з51392100 0.0 1039608
02:00−17з4138850 0.0 1038567
05:00−19зюз299624 0.0 1038215
08:00−20ююз239710 0.0 103743
11:00−14юз3871100 0.0 1032268
14:00−13ююз3867100 0.0 1027297
17:00−14ююз2683100 0.0 1024150
20:00−14ююз2386100 0.0 102164
13 декабря, пн
пн1323:00−12юз2374100 0.0 101963
02:00−14юз2285100 0.0 101831
05:00−16юз229041 0.0 101816
08:00−17юз219176 0.0 101814
11:00−10з1263100 0.0 1016124
14:00−8зсз1287100 0.3 1015248
17:00−12з119899 0.0 101712
20:00−15з2497100 0.0 102166